Regional Weather Roundup
Issued by NWS Boston, MA

Home | Current Version | Previous Version | Text Only | Print | Product List | Glossary On
Versions: 1 2 3 4 5 6 7 8 9 10 11 12 13 14 15 16 17 18 19 20 21 22 23 24 25 26 27 28 29 30 31 32 33 34 35 36 37 38 39 40 41 42 43 44 45 46 47 48 49 50
435
ASUS41 KBOX 060210
RWRBOX

REGIONAL WEATHER ROUNDUP
NATIONAL WEATHER SERVICE TAUNTON MA
900 PM EST MON DEC 05 2016

NOTE:  "FAIR" INDICATES FEW OR NO CLOUDS BELOW 12,000 FEET WITH NO
SIGNIFICANT WEATHER AND/OR OBSTRUCTIONS TO VISIBILITY.

MAZALL-060300-
EASTERN MASSACHUSETTS

CITY           SKY/WX    TMP DP  RH WIND       PRES   REMARKS
BOSTON         CLEAR     39  33  79 W10       29.97R
BEVERLY        CLEAR     34  32  92 W7        29.95R WCI  28
LAWRENCE       PTCLDY    35  31  85 W7        29.97R WCI  29
BEDFORD        CLEAR     32  28  85 SW7       29.96R WCI  26
BLUE HILL        N/A     33  31  92 W16       29.94R WCI  23
NORWOOD        CLEAR     28  26  92 CALM      29.98R
MARSHFIELD     CLEAR     36  34  93 W6G13     29.96R WCI  31
PLYMOUTH       CLEAR     34  31  88 W8        29.97R WCI  27
TAUNTON        CLEAR     34  30  85 NW3       29.98R
NEW BEDFORD    CLEAR     36  32  85 NW6       29.98R WCI  31
$$

MAZALL-060300-
CAPE COD AND THE ISLANDS

CITY           SKY/WX    TMP DP  RH WIND       PRES   REMARKS
FALMOUTH       CLEAR     36  32  87 MISG      29.96
HYANNIS        CLEAR     37  33  85 NW7       29.94S WCI  32
CHATHAM        CLEAR     39  35  86 NW6       29.95S
PROVINCETOWN   CLEAR     43  35  73 NW24G31   29.94S
NANTUCKET      CLEAR     41  33  73 NW15G22   29.96R
MARTHAS VNYRD  CLEAR     40  33  76 NW8       29.97R
$$

MAZALL-060300-
CENTRAL AND WESTERN MASSACHUSETTS

CITY           SKY/WX    TMP DP  RH WIND       PRES   REMARKS
WORCESTER      MOCLDY    32  29  88 W10       29.97R WCI  24
FITCHBURG      PTCLDY    33  27  78 CALM      29.97R
ORANGE         CLOUDY    31  30  96 SW6       29.98R WCI  25
SPRINGFIELD    CLOUDY    37  32  80 W8        30.00R WCI  31
WESTFIELD      CLOUDY    34  33  96 CALM      30.02R
NORTH ADAMS    CLOUDY    38  30  73 W10       29.99R WCI  31
PITTSFIELD     CLOUDY    35  29  78 W9        29.98R WCI  28
$$

RIZALL-060300-
RHODE ISLAND

CITY           SKY/WX    TMP DP  RH WIND       PRES   REMARKS
PROVIDENCE     CLEAR     40  30  67 W13       29.99R
NEWPORT        CLEAR     41  33  73 NW10      29.99R
BLOCK ISLAND   CLEAR     44  33  65 NW17G25   30.00S
SMITHFIELD     CLEAR     36  31  82 W9        29.99R WCI  29
WESTERLY       CLEAR     38  30  73 CALM      30.03R
$$

CTZALL-060300-
CONNECTICUT

CITY           SKY/WX    TMP DP  RH WIND       PRES   REMARKS
BRADLEY INTL   CLOUDY    39  30  70 W7        30.02R
HARTFORD       CLOUDY    41  32  70 W7        30.03R
BRIDGEPORT     PTCLDY    41  31  67 W6        30.05R
GROTON         PTCLDY    42  34  73 W9        30.03R
NEW HAVEN      PTCLDY    40  33  76 W3        30.05R
CHESTER        MOCLDY    37  32  81 W5        30.03R
MERIDEN        CLOUDY    32  29  88 CALM      30.05R
WILLIMANTIC    PTCLDY    31  30  96 CALM      30.03R FOG
OXFORD         PTCLDY    37  27  65 CALM      30.04R
$$

MEZ002-015-021-024-NHZ003-005-008-011-012-014-VTZ005-008-060300-
NORTHERN NEW ENGLAND

CITY           SKY/WX    TMP DP  RH WIND       PRES   REMARKS
PORTLAND ME    CLOUDY    27  25  92 NW5       29.92S WCI  22
BANGOR ME      LGT SNOW  26  25  96 N6        29.91S VSB 3/4 WCI  19
CONCORD NH     FOG       24  21  88 CALM      29.95R VSB 1/4
MANCHESTER NH  PTCLDY    27  24  89 CALM      29.94R
NASHUA NH      MOCLDY    22  21  96 CALM      29.97R
PORTSMOUTH NH  MOCLDY    30  28  93 W5        29.93R WCI  25
JAFFREY NH     CLEAR     29  26  89 S5        29.94R WCI  24
KEENE NH       PTCLDY    26  25  96 CALM      29.97R FOG
BURLINGTON VT  CLOUDY    34  30  85 N6        29.99R WCI  29
MT. WASHINGTON SNOWSHWR  12  12 100 NW53        N/A  VSB 0   WCI -14
$$

NYZ052-076-060300-
EASTERN NEW YORK

CITY           SKY/WX    TMP DP  RH WIND       PRES   REMARKS
ALBANY         CLOUDY    39  31  72 W7        30.03R
NEW YORK CITY  PTCLDY    47  32  56 NW9       30.08R
$$

ANZALL-060300-
MARINE OBSERVATIONS

STATION/POSITION TIME  TEMP    WIND        PRES    VSBY  WAVE
                       AIR SEA DIR/SP/G                  HT/PER
                 (UTC) (F)     (DEG/KT/KT) (MB)    (MI)  (FT/S)
BOSTON BUOY      0050   43 50  280/ 23/ 27 1012.0          3/10
BUZZARDS BAY     0100   42     310/ 21/ 23 1015.0R
NANTUCKET SOUND  NOT AVBL
MASS BAY-STELLWA 0104   41 49  290/ 21/ 25 1012.7F  1 7/8  4/ 3
ISLE OF SHOALS   0100   35     290/ 14/ 17 1013.0F
S OF BLOCK IS    0155      55                N/A           5/ 5
$$

......................KEY.........................
  SKY/WX - SKY CONDITION/PRESENT WEATHER
  TMP    - TEMPERATURE IN FAHRENHEIT
  DWPT   - DEWPOINT IN FAHRENHEIT
  RH     - RELATIVE HUMIDITY IN PERCENT
  WIND   - DIRECTION AND SPEED IN MPH
  PRES   - MEAN SEA LEVEL PRESSURE IN INCHES OF HG
  WCI    - WIND CHILL INDEX
  VSB    - VISIBILITY IN MILES
  HX     - HEAT INDEX
  TC     - TEMPERATURE IN CELSIUS
  VRB    - VARIABLE WIND DIRECTION
  N/A    - NOT AVAILABLE




USA.gov is the U.S. government's official web portal to all federal, state and local government web resources and services.